Location: Bukit Lungun
(2.6833°N, 113.9667°E)
Time: 13:25:53
(UTC+00:00)

CENTAUR R/B - Pass Details

Date: 02 March 2021
Orbit: 742 x 1446 km, 63.4° (Epoch: 18 April)

Event Time Altitude Azimuth Distance (km) Brightness Sun altitude
Rises 12:14:45 0° 205° (SSW) 3,174 5.6 -24.8°
Reaches altitude 10° 12:17:05 10° 206° (SSW) 2,251 4.8 -25.3°
Maximum altitude 12:22:08 81° 293° (WNW) 780 2.0 -26.6°
Enters shadow 12:22:45 69° 359° (N) 827 2.0 -26.8°
